Hourly Data Report for October 09, 2016

All times are specified in Local Standard Time (LST). Add 1 hour to adjust for Daylight Saving Time where and when it is observed.

BAKER LAKE A
NUNAVUT

64°17'56.000" N
96°04'40.000" W
18.60 m
2300503
71926
YBK

Download Data

Hourly Data (October 2016)
Hourly Data Report for October 9, 2016
Temp Definition
°C
Dew Point Temp Definition
°C
Rel Hum Definition
%
Wind Dir Definition
10's deg

Wind Spd Definition
km/h
Visibility Definition
km
Stn Press Definition
kPa
Hmdx Definition


Wind Chill Definition


Weather Definition


TIME
00:00 Legend Double Dagger -1.2 -2.5 91 29 12 24.1 102.00   -5 Snow
01:00 Legend Double Dagger -1.4 -2.7 91 28 8 24.1 102.00   -4 Snow
02:00 Legend Double Dagger -1.6 -2.7 92 28 8 24.1 101.99   -5 Snow
03:00 Legend Double Dagger -1.4 -2.7 91 29 11 24.1 101.97   -5 Snow
04:00 Legend Double Dagger -1.4 -2.7 91 29 12 24.1 101.98   -5 Snow
05:00 Legend Double Dagger -1.6 -3.0 90 30 15 24.1 101.99   -6 Snow
06:00 Legend Double Dagger -1.7 -3.3 89 30 18 24.1 101.98   -7 Snow
07:00 Legend Double Dagger -1.6 -2.9 91 29 13 32.2 101.99   -6 LegendNANA
08:00 Legend Double Dagger -2.1 -4.6 83 31 11 32.2 102.01   -6 LegendNANA
09:00 Legend Double Dagger -2.0 -5.5 77 29 23 32.2 102.01   -8 Mostly Cloudy
10:00 Legend Double Dagger -1.8 -5.1 78 29 22 32.2 102.00   -8 LegendNANA
11:00 Legend Double Dagger -1.4 -4.9 77 29 22 32.2 102.01   -7 LegendNANA
12:00 Legend Double Dagger -1.0 -5.1 74 30 18 32.2 101.99   -6 Mostly Cloudy
13:00 Legend Double Dagger -1.0 -5.1 74 29 21 32.2 101.98   -7 LegendNANA
14:00 Legend Double Dagger -1.2 -4.7 77 30 27 32.2 101.95   -8 LegendNANA
15:00 Legend Double Dagger -0.7 -5.5 70 29 22 32.2 101.96   -6 Mostly Cloudy
16:00 Legend Double Dagger -0.4 -4.8 72 28 27 32.2 101.96   -7 LegendNANA
17:00 Legend Double Dagger -1.6 -4.6 80 27 16 32.2 101.96   -7 LegendNANA
18:00 Legend Double Dagger -2.2 -4.2 86 29 18 24.1 101.97   -8 Mostly Cloudy
19:00 Legend Double Dagger -2.5 -4.5 86 30 14 24.1 101.97   -7 LegendNANA
20:00 Legend Double Dagger -3.1 -6.1 80 31 21 24.1 101.96   -9 LegendNANA
21:00 Legend Double Dagger -3.6 -6.4 81 30 15 24.1 101.96   -9 Mainly Clear
22:00 Legend Double Dagger -3.6 -5.6 86 26 13 24.1 101.96   -8 LegendNANA
23:00 Legend Double Dagger -3.9 -4.9 93 29 16 24.1 101.92   -9 LegendNANA

Notes on Data Quality.

Legend

  • E = Estimated
  • M = Missing
  • NA = Not Available
  • ‡ = Partner data that is not subject to review by the National Climate Archives
Date modified: